SCP
0 0 0 0 0 0 0 0 0 0 0 0 0 0 0 0 0 0 0 0 0 0 0 0 0 0 0 0 0 0 0 0 0 0 0 0 0 0 0 0 0 0 0 0
0 0 0 0 0 0 0 0 0 0 0 0 0 0 0 0 0 0 0 0 0 0 0 0 0 0 0 0 0 0 0 0 0 0 0 0 0 0 0 0 0 0 0 0
0 0 0 0 0 0 0 0 0 0 0 0 0 0 0 0 0 0 0 0 0 0 0 0 0 0 0 0 0 0 0 0 0 0 0 0 0 0 0 0 0 0 0 0
0 0 0 0 0 0 0 0 0 0 -0 0 0 0 0 0 0 0 0 0 0 0 0 0 0 0 0 0 0 0 0 0 0 0 0 0 0 0 0 0 0 0 0 0
0 0 0 0 0 0 0 0 0 0 0 -0 0 0 0 0 0 0 0 0 0 0 0 0 0 0 0 0 0 0 0 0 0 0 0 0 0 0 0 0 0 0 0 -0
0 0 0 0 0 0 0 0 0 0 -0 0 0 0 0 0 0 0 0 0 0 0 0 0 0 0 0 0 0 0 0 0 0 0 0 0 0 0 0 0 0 0 0 -0
0 0 0 0 0 0 0 0 0 0 -0 -0 0 0 0 0 0 0 0 0 0 0 0 0 0 0 0 0 0 0 0 0 0 0 0 0 0 0 0 0 0 0 0 0
0 0 -0 0 0 0 0 0 0 0 0 0 0 0 0 0 0 0 0 0 0 0 0 0 0 0 0 0 0 0 0 0 0 0 0 0 0 0 0 0 0 0 0 0
0 0 0 0 0 0 0 0 0 0 0 0 0 0 0 0 0 0 0 0 0 0 0 0 0 0 0 0 0 0 0 0 0 0 0 0 0 0 0 0 0 0 0 0
0 0 0 0 0 0 0 0 0 0 0 0 0 0 0 0 0 0 0 0 0 0 0 0 0 0 0 0 0 0 0 0 0 0 0 0 0 0 0 0 0 0 0 0
0 0 0 0 0 0 0 0 0 0 0 0 0 0 0 0 0 0 0 0 0 0 0 0 0 0 0 0 0 0 0 0 0 0 0 0 0 0 0 0 0 0 0 0
0 0 0 0 0 0 0 0 0 0 0 0 0 0 0 0 0 0 0 0 0 0 0 0 0 0 0 0 0 0 0 0 0 0 0 0 0 0 0 0 0 0 0 0
0 0 0 0 0 0 0 0 0 0 0 0 0 0 0 0 0 0 0 0 0 0 0 0 0 0 0 0 0 0 0 0 0 0 0 0 0 0 0 0 0 0 0 0
-0 0 0 0 0 0 0 0 0 0 0 0 0 0 0 0 0 0 0 0 0 0 0 0 0 0 0 0 0 0 0 0 0 0 0 0 0 0 0 0 0 0 0 0
0 0 0 0 0 0 0 0 0 0 0 0 0 0 0 0 0 0 0 0 0 0 0 0 0 0 0 0 0 0 0 0 0 0 0 0 0 0 0 0 0 0 0 0
0 0 0 0 0 0 0 0 0 0 0 0 0 0 0 0 0 0 0 0 0 0 0 0 0 0 0 0 0 0 0 0 0 0 0 0 0 0 0 0 0 0 0 0
0 0 0 0 0 0 0 0 0 0 0 0 0 0 0 0 0 0 0 0 0 0 0 0 0 0 0 0 0 0 0 0 0 0 0 0 0 0 0 0 0 0 0 0
0 0 0 0 0 0 0 0 0 0 0 0 0 0 0 0 0 0 0 0 0 0 0 0 0 0 0 0 0 0 0 0 0 0 0 0 0 0 0 0 0 0 0 0
0 0 0 0 0 0 0 0 0 0 0 0 0 0 0 0 0 0 0 0 0 0 0 0 0 0 0 0 0 0 0 0 0 0 0 0 0 0 0 0 0 0 0 0
0 0 0 0 0 0 0 0 0 0 0 0 0 0 0 0 0 0 0 0 0 0 0 0 0 0 0 0 0 0 0 0 0 0 0 0 0 0 0 0 0 0 0 0
0 0 0 0 0 0 0 0 0 0 0 0 0 0 0 0 0 0 0 0 0 0 0 0 0 0 0 0 0 0 0 0 0 0 0 0 0 0 0 0 0 0 0 0
0 0 0 0 0 0 0 0 0 0 0 0 0 0 0 0 0 0 0 0 0 0 0 0 0 0 0 0 0 0 0 0 0 0 0 0 0 0 0 0 0 0 0 0
0 0 0 0 0 0 0 0 0 0 0 0 0 0 0 0 0 0 0 0 0 0 0 0 0 0 0 0 0 0 0 0 0 0 0 0 0 0 0 0 0 0 0 0
0 0 0 0 0 0 0 0 0 0 0 0 0 0 0 0 0 0 0 0 0 0 0 0 0 0 0 0 0 0 0 0 0 0 0 0 0 0 0 0 0 0 0 0
0 0 0 0 0 0 0 0 0 0 0 0 0 0 0 0 0 0 0 0 0 0 0 0 0 0 0 0 0 0 0 0 0 0 0 0 0 0 0 0 0 0 0 0
0 0 0 0 0 0 0 0 0 0 0 0 0 0 0 0 0 0 0 0 0 0 0 0 0 0 0 0 0 0 0 0 0 0 0 0 0 0 0 0 0 0 0 0
0 0 0 0 0 0 0 0 0 0 0 0 0 0 0 0 0 0 0 0 0 0 0 0 0 0 0 0 0 0 0 0 0 0 0 0 0 0 0 0 0 0 0 0
Wind_Speed_500mb
32 24 22 27 14 12 15 18 5 28 64 25 26 32 20 25 16 44 9 13 9 38 40 31 30 36 30 56 53 19 4 10 8 19 2 4 6 14 18 10 9 6 7 15
32 24 21 29 17 14 19 14 7 20 60 19 30 23 19 21 21 40 18 14 9 14 37 28 29 27 22 62 40 37 15 4 7 7 9 1 13 7 10 9 5 13 8 14
27 26 16 33 20 14 23 12 6 8 17 13 26 22 41 30 21 37 11 12 14 29 26 13 34 19 10 57 31 37 28 8 16 20 11 15 11 15 9 10 2 12 25 24
30 23 24 21 21 15 17 11 4 12 9 10 8 25 37 36 25 14 25 5 30 25 21 39 17 18 10 33 52 29 22 12 6 0 8 14 12 20 33 26 52 18 50 26
32 35 37 33 24 18 21 9 4 7 9 18 17 24 43 51 36 29 45 17 19 10 17 26 16 21 11 31 12 34 20 6 11 6 10 9 8 36 49 59 37 43 30 40
30 28 34 35 36 18 11 8 2 4 21 19 16 19 27 52 51 5 39 32 33 21 12 37 40 33 39 36 42 33 26 14 13 15 10 11 14 46 37 40 34 51 34 68
30 22 23 40 30 21 11 9 5 5 6 17 26 34 24 49 50 21 16 40 37 19 25 45 40 27 28 23 14 35 23 29 5 6 2 11 23 28 34 43 31 43 41 42
39 27 19 19 25 23 8 8 4 6 2 2 18 27 37 24 39 6 14 10 28 55 37 8 10 7 8 7 9 6 7 16 7 14 8 13 33 12 13 20 43 33 44 50
37 30 23 24 17 18 14 9 12 4 2 5 7 10 32 19 21 8 6 11 45 40 7 6 11 12 12 14 6 3 6 11 15 7 13 21 6 11 47 10 40 31 53 52
27 35 27 21 19 18 17 12 8 3 6 11 8 2 17 14 16 16 6 19 11 35 7 7 7 8 12 17 23 14 7 5 29 5 10 19 12 8 48 18 17 21 53 60
24 34 30 23 21 22 23 18 8 3 9 16 21 9 6 8 25 17 15 21 4 5 12 11 6 6 11 7 7 20 19 20 16 8 10 33 17 16 29 11 12 23 24 35
24 32 32 26 19 14 22 22 13 13 12 10 23 35 25 19 9 17 25 9 11 16 9 6 7 5 8 12 12 3 9 16 14 25 18 5 33 6 23 20 19 18 22 21
27 26 25 24 21 14 12 20 20 20 12 11 9 16 30 26 17 16 8 4 17 15 13 7 5 8 6 9 8 8 7 3 8 8 10 10 37 16 17 18 19 20 16 16
34 29 23 21 21 16 10 9 26 11 12 6 8 15 20 25 31 20 17 31 25 31 23 4 4 6 4 5 6 6 7 14 13 5 4 10 11 21 20 21 19 18 17 14
32 27 21 21 22 19 16 11 17 11 7 8 7 19 18 20 21 23 32 38 34 15 7 4 4 6 7 1 4 2 4 6 13 8 13 7 11 27 19 23 23 17 14 10
33 30 26 25 22 23 20 7 7 16 16 11 4 6 18 16 19 20 24 24 27 14 11 6 8 6 5 5 5 2 7 13 6 11 19 28 34 25 18 15 15 8 4 2
33 32 30 27 25 21 5 6 21 20 13 8 5 5 7 13 15 14 19 17 15 12 8 6 4 8 9 4 4 12 22 20 20 25 28 20 20 17 18 16 10 9 11 13
35 37 38 37 30 23 22 25 22 12 7 10 6 3 5 9 7 6 7 5 4 11 6 6 4 6 7 4 5 27 29 32 26 20 10 22 25 20 18 11 8 3 4 5
42 45 42 35 22 9 21 24 18 14 8 9 6 7 5 5 7 6 6 5 5 3 3 2 5 2 4 7 11 20 17 7 13 20 24 27 24 11 10 11 9 4 3 4
53 48 13 9 13 35 25 7 6 9 11 9 4 4 1 5 6 6 3 6 2 3 3 4 5 5 18 19 17 13 6 9 21 23 21 18 12 10 7 4 2 4 10 14
36 8 9 44 37 9 7 8 10 9 9 11 6 4 4 6 5 4 7 3 2 5 5 4 3 1 6 12 12 13 11 13 16 15 11 6 3 8 11 12 16 19 22 27
15 31 41 24 6 8 12 2 5 7 6 3 5 5 6 8 4 6 8 4 4 4 6 6 1 2 12 10 8 13 12 10 7 4 1 5 11 15 20 24 27 28 29 32
42 12 9 6 9 14 10 2 7 3 4 6 6 4 5 6 7 9 6 8 3 4 6 3 2 7 9 11 8 10 12 11 9 8 5 5 7 11 15 18 22 26 29 32
9 7 8 6 6 2 7 7 7 2 4 18 17 8 5 4 8 1 9 5 5 7 5 6 1 4 7 9 10 9 13 13 11 10 9 8 7 8 11 16 20 24 29 32
9 7 4 2 7 9 5 7 9 6 12 9 12 10 6 6 8 5 6 10 3 6 7 2 9 5 5 6 9 11 11 11 12 12 13 15 17 19 20 23 27 31 34 37
9 13 9 5 6 4 6 12 12 11 14 13 9 5 8 6 7 8 5 10 8 6 3 13 11 3 2 5 8 11 13 13 14 15 17 21 23 25 29 32 35 37 39 41
9 7 18 12 14 8 6 8 9 9 2 3 6 8 10 3 7 2 7 8 5 15 21 15 8 5 0 4 7 8 10 11 12 14 17 21 25 29 31 33 36 40 43 45
Wind_Direction_500mb
224 225 221 224 235 196 204 175 162 189 210 176 181 190 174 165 166 171 169 132 118 176 173 186 200 198 201 188 179 165 101 114 167 199 286 236 244 185 191 174 217 239 166 245
220 215 226 222 226 197 198 180 189 160 185 191 184 162 200 181 161 181 160 150 160 154 174 192 203 193 206 177 175 175 170 181 91 46 328 197 219 177 171 106 75 205 147 260
205 209 199 203 210 202 205 186 168 56 192 284 191 162 188 175 167 187 171 133 126 147 181 193 191 169 148 177 178 174 151 167 171 190 191 132 174 187 198 136 136 215 232 234
193 193 201 194 196 214 202 207 196 152 178 214 218 178 166 180 164 169 191 185 172 158 173 194 182 155 118 168 179 159 161 183 150 227 166 147 164 179 190 204 220 191 245 245
184 196 185 179 189 209 205 173 168 191 133 144 181 205 181 184 170 159 195 184 179 176 154 185 156 144 143 170 157 170 183 200 129 251 124 141 174 200 201 212 210 239 250 281
181 190 206 175 187 200 200 170 173 280 172 171 182 210 193 192 175 115 192 189 177 192 187 162 166 163 173 160 174 182 170 130 173 214 162 106 287 215 204 217 207 221 229 241
189 194 195 190 178 199 203 196 151 273 173 180 195 191 204 200 198 168 159 176 190 172 144 132 126 86 104 151 136 189 165 188 109 131 79 187 247 183 188 207 216 220 243 254
186 189 195 173 181 193 176 173 186 267 161 234 173 176 182 194 200 76 156 148 170 161 132 73 75 44 70 16 355 147 210 163 120 148 206 286 275 182 150 171 242 214 228 248
187 182 176 192 183 187 181 164 209 259 243 27 326 179 187 173 187 100 334 137 159 158 89 124 176 170 145 174 223 310 68 186 165 141 163 216 343 188 178 104 263 190 212 237
175 186 176 190 184 164 171 171 181 190 118 23 23 82 182 148 135 165 135 140 151 174 130 163 166 158 149 162 173 163 119 73 199 159 219 274 232 157 143 157 251 214 211 225
170 178 180 179 181 180 174 163 150 119 94 49 47 69 86 105 168 168 160 142 188 102 171 192 150 146 194 129 177 175 164 162 196 137 214 254 167 144 178 196 198 195 198 220
168 173 172 166 159 159 179 163 135 108 74 84 67 61 68 89 115 167 159 137 149 164 146 167 137 165 163 153 179 306 198 193 169 186 207 210 178 218 216 199 201 201 209 215
168 173 184 179 176 150 141 174 152 123 101 72 52 42 57 68 82 147 141 144 150 157 126 131 145 150 130 169 222 96 245 139 161 106 190 190 182 206 202 212 217 198 204 209
160 162 171 173 177 172 164 156 172 125 111 92 26 60 59 54 69 94 139 142 146 147 134 111 116 117 225 178 137 137 204 139 156 278 83 87 170 191 189 174 169 170 174 183
164 166 163 165 166 161 150 138 156 150 90 130 85 64 54 82 73 87 82 95 107 108 92 81 110 116 128 89 78 177 192 188 190 206 164 134 155 167 154 151 132 126 135 140
162 160 160 152 144 147 134 98 130 124 106 96 74 49 70 104 107 85 77 62 62 79 96 95 98 124 168 112 158 317 126 93 73 136 103 106 137 143 139 127 108 98 56 92
158 159 149 131 124 132 101 115 141 120 79 94 73 15 26 91 94 87 70 68 57 59 79 75 104 61 48 88 144 178 128 106 115 130 129 93 115 113 113 108 99 105 51 22
157 149 145 138 139 128 97 107 148 143 73 77 95 297 25 42 44 65 49 57 75 35 90 108 85 69 54 53 311 160 157 145 133 126 132 141 133 123 111 77 64 120 175 223
146 144 146 134 132 90 123 109 97 97 87 110 86 129 192 70 63 63 66 43 61 8 83 38 123 112 96 9 4 105 63 52 184 157 160 158 145 136 152 150 182 250 21 283
139 133 97 89 104 115 116 77 38 40 39 51 94 118 70 73 44 35 43 28 89 80 304 114 64 89 103 41 63 105 79 82 154 153 161 181 191 171 143 102 350 281 280 292
135 87 75 131 128 114 60 61 53 350 15 20 67 90 123 84 94 159 13 179 6 89 265 110 34 82 80 25 54 58 70 90 104 133 143 139 220 292 301 295 297 297 296 296
127 121 118 116 71 64 78 331 344 55 202 305 106 69 77 90 75 89 2 105 31 165 321 75 279 41 356 10 41 40 43 57 78 87 357 306 302 305 306 305 303 304 304 299
119 88 77 52 2 46 92 138 308 14 198 168 144 33 52 102 75 65 67 68 210 326 45 190 248 94 42 29 52 61 54 64 64 53 32 7 343 325 316 316 313 311 308 304
84 97 63 104 354 247 179 181 179 120 237 142 122 81 94 44 54 175 81 260 53 49 56 241 118 96 54 46 53 67 56 57 54 46 45 41 37 16 349 335 329 327 323 321
81 68 104 131 135 76 97 95 112 63 141 123 96 59 46 358 81 45 86 35 14 194 215 192 148 107 44 34 42 43 40 38 34 25 13 4 359 357 350 340 335 330 327 324
64 58 76 59 63 344 62 70 77 93 134 109 64 82 52 1 115 56 192 106 209 241 187 145 159 151 32 24 28 22 17 8 358 348 341 338 332 330 332 331 328 327 327 326
57 48 67 66 62 67 46 61 61 126 65 110 103 77 200 99 48 37 191 189 206 142 142 149 159 177 155 3 10 360 342 336 333 331 326 324 322 322 325 320 322 325 326 325
Wind_Speed_850mb
32 24 22 27 14 12 15 18 5 28 64 25 26 32 20 25 16 44 9 13 9 38 40 31 30 36 30 56 53 19 4 10 8 19 2 4 6 14 18 10 9 6 7 15
32 24 21 29 17 14 19 14 7 20 60 19 30 23 19 21 21 40 18 14 9 14 37 28 29 27 22 62 40 37 15 4 7 7 9 1 13 7 10 9 5 13 8 14
27 26 16 33 20 14 23 12 6 8 17 13 26 22 41 30 21 37 11 12 14 29 26 13 34 19 10 57 31 37 28 8 16 20 11 15 11 15 9 10 2 12 25 24
30 23 24 21 21 15 17 11 4 12 9 10 8 25 37 36 25 14 25 5 30 25 21 39 17 18 10 33 52 29 22 12 6 0 8 14 12 20 33 26 52 18 50 26
32 35 37 33 24 18 21 9 4 7 9 18 17 24 43 51 36 29 45 17 19 10 17 26 16 21 11 31 12 34 20 6 11 6 10 9 8 36 49 59 37 43 30 40
30 28 34 35 36 18 11 8 2 4 21 19 16 19 27 52 51 5 39 32 33 21 12 37 40 33 39 36 42 33 26 14 13 15 10 11 14 46 37 40 34 51 34 68
30 22 23 40 30 21 11 9 5 5 6 17 26 34 24 49 50 21 16 40 37 19 25 45 40 27 28 23 14 35 23 29 5 6 2 11 23 28 34 43 31 43 41 42
39 27 19 19 25 23 8 8 4 6 2 2 18 27 37 24 39 6 14 10 28 55 37 8 10 7 8 7 9 6 7 16 7 14 8 13 33 12 13 20 43 33 44 50
37 30 23 24 17 18 14 9 12 4 2 5 7 10 32 19 21 8 6 11 45 40 7 6 11 12 12 14 6 3 6 11 15 7 13 21 6 11 47 10 40 31 53 52
27 35 27 21 19 18 17 12 8 3 6 11 8 2 17 14 16 16 6 19 11 35 7 7 7 8 12 17 23 14 7 5 29 5 10 19 12 8 48 18 17 21 53 60
24 34 30 23 21 22 23 18 8 3 9 16 21 9 6 8 25 17 15 21 4 5 12 11 6 6 11 7 7 20 19 20 16 8 10 33 17 16 29 11 12 23 24 35
24 32 32 26 19 14 22 22 13 13 12 10 23 35 25 19 9 17 25 9 11 16 9 6 7 5 8 12 12 3 9 16 14 25 18 5 33 6 23 20 19 18 22 21
27 26 25 24 21 14 12 20 20 20 12 11 9 16 30 26 17 16 8 4 17 15 13 7 5 8 6 9 8 8 7 3 8 8 10 10 37 16 17 18 19 20 16 16
34 29 23 21 21 16 10 9 26 11 12 6 8 15 20 25 31 20 17 31 25 31 23 4 4 6 4 5 6 6 7 14 13 5 4 10 11 21 20 21 19 18 17 14
32 27 21 21 22 19 16 11 17 11 7 8 7 19 18 20 21 23 32 38 34 15 7 4 4 6 7 1 4 2 4 6 13 8 13 7 11 27 19 23 23 17 14 10
33 30 26 25 22 23 20 7 7 16 16 11 4 6 18 16 19 20 24 24 27 14 11 6 8 6 5 5 5 2 7 13 6 11 19 28 34 25 18 15 15 8 4 2
33 32 30 27 25 21 5 6 21 20 13 8 5 5 7 13 15 14 19 17 15 12 8 6 4 8 9 4 4 12 22 20 20 25 28 20 20 17 18 16 10 9 11 13
35 37 38 37 30 23 22 25 22 12 7 10 6 3 5 9 7 6 7 5 4 11 6 6 4 6 7 4 5 27 29 32 26 20 10 22 25 20 18 11 8 3 4 5
42 45 42 35 22 9 21 24 18 14 8 9 6 7 5 5 7 6 6 5 5 3 3 2 5 2 4 7 11 20 17 7 13 20 24 27 24 11 10 11 9 4 3 4
53 48 13 9 13 35 25 7 6 9 11 9 4 4 1 5 6 6 3 6 2 3 3 4 5 5 18 19 17 13 6 9 21 23 21 18 12 10 7 4 2 4 10 14
36 8 9 44 37 9 7 8 10 9 9 11 6 4 4 6 5 4 7 3 2 5 5 4 3 1 6 12 12 13 11 13 16 15 11 6 3 8 11 12 16 19 22 27
15 31 41 24 6 8 12 2 5 7 6 3 5 5 6 8 4 6 8 4 4 4 6 6 1 2 12 10 8 13 12 10 7 4 1 5 11 15 20 24 27 28 29 32
42 12 9 6 9 14 10 2 7 3 4 6 6 4 5 6 7 9 6 8 3 4 6 3 2 7 9 11 8 10 12 11 9 8 5 5 7 11 15 18 22 26 29 32
9 7 8 6 6 2 7 7 7 2 4 18 17 8 5 4 8 1 9 5 5 7 5 6 1 4 7 9 10 9 13 13 11 10 9 8 7 8 11 16 20 24 29 32
9 7 4 2 7 9 5 7 9 6 12 9 12 10 6 6 8 5 6 10 3 6 7 2 9 5 5 6 9 11 11 11 12 12 13 15 17 19 20 23 27 31 34 37
9 13 9 5 6 4 6 12 12 11 14 13 9 5 8 6 7 8 5 10 8 6 3 13 11 3 2 5 8 11 13 13 14 15 17 21 23 25 29 32 35 37 39 41
9 7 18 12 14 8 6 8 9 9 2 3 6 8 10 3 7 2 7 8 5 15 21 15 8 5 0 4 7 8 10 11 12 14 17 21 25 29 31 33 36 40 43 45
Wind_Direction_850mb
224 225 221 224 235 196 204 175 162 189 210 176 181 190 174 165 166 171 169 132 118 176 173 186 200 198 201 188 179 165 101 114 167 199 286 236 244 185 191 174 217 239 166 245
220 215 226 222 226 197 198 180 189 160 185 191 184 162 200 181 161 181 160 150 160 154 174 192 203 193 206 177 175 175 170 181 91 46 328 197 219 177 171 106 75 205 147 260
205 209 199 203 210 202 205 186 168 56 192 284 191 162 188 175 167 187 171 133 126 147 181 193 191 169 148 177 178 174 151 167 171 190 191 132 174 187 198 136 136 215 232 234
193 193 201 194 196 214 202 207 196 152 178 214 218 178 166 180 164 169 191 185 172 158 173 194 182 155 118 168 179 159 161 183 150 227 166 147 164 179 190 204 220 191 245 245
184 196 185 179 189 209 205 173 168 191 133 144 181 205 181 184 170 159 195 184 179 176 154 185 156 144 143 170 157 170 183 200 129 251 124 141 174 200 201 212 210 239 250 281
181 190 206 175 187 200 200 170 173 280 172 171 182 210 193 192 175 115 192 189 177 192 187 162 166 163 173 160 174 182 170 130 173 214 162 106 287 215 204 217 207 221 229 241
189 194 195 190 178 199 203 196 151 273 173 180 195 191 204 200 198 168 159 176 190 172 144 132 126 86 104 151 136 189 165 188 109 131 79 187 247 183 188 207 216 220 243 254
186 189 195 173 181 193 176 173 186 267 161 234 173 176 182 194 200 76 156 148 170 161 132 73 75 44 70 16 355 147 210 163 120 148 206 286 275 182 150 171 242 214 228 248
187 182 176 192 183 187 181 164 209 259 243 27 326 179 187 173 187 100 334 137 159 158 89 124 176 170 145 174 223 310 68 186 165 141 163 216 343 188 178 104 263 190 212 237
175 186 176 190 184 164 171 171 181 190 118 23 23 82 182 148 135 165 135 140 151 174 130 163 166 158 149 162 173 163 119 73 199 159 219 274 232 157 143 157 251 214 211 225
170 178 180 179 181 180 174 163 150 119 94 49 47 69 86 105 168 168 160 142 188 102 171 192 150 146 194 129 177 175 164 162 196 137 214 254 167 144 178 196 198 195 198 220
168 173 172 166 159 159 179 163 135 108 74 84 67 61 68 89 115 167 159 137 149 164 146 167 137 165 163 153 179 306 198 193 169 186 207 210 178 218 216 199 201 201 209 215
168 173 184 179 176 150 141 174 152 123 101 72 52 42 57 68 82 147 141 144 150 157 126 131 145 150 130 169 222 96 245 139 161 106 190 190 182 206 202 212 217 198 204 209
160 162 171 173 177 172 164 156 172 125 111 92 26 60 59 54 69 94 139 142 146 147 134 111 116 117 225 178 137 137 204 139 156 278 83 87 170 191 189 174 169 170 174 183
164 166 163 165 166 161 150 138 156 150 90 130 85 64 54 82 73 87 82 95 107 108 92 81 110 116 128 89 78 177 192 188 190 206 164 134 155 167 154 151 132 126 135 140
162 160 160 152 144 147 134 98 130 124 106 96 74 49 70 104 107 85 77 62 62 79 96 95 98 124 168 112 158 317 126 93 73 136 103 106 137 143 139 127 108 98 56 92
158 159 149 131 124 132 101 115 141 120 79 94 73 15 26 91 94 87 70 68 57 59 79 75 104 61 48 88 144 178 128 106 115 130 129 93 115 113 113 108 99 105 51 22
157 149 145 138 139 128 97 107 148 143 73 77 95 297 25 42 44 65 49 57 75 35 90 108 85 69 54 53 311 160 157 145 133 126 132 141 133 123 111 77 64 120 175 223
146 144 146 134 132 90 123 109 97 97 87 110 86 129 192 70 63 63 66 43 61 8 83 38 123 112 96 9 4 105 63 52 184 157 160 158 145 136 152 150 182 250 21 283
139 133 97 89 104 115 116 77 38 40 39 51 94 118 70 73 44 35 43 28 89 80 304 114 64 89 103 41 63 105 79 82 154 153 161 181 191 171 143 102 350 281 280 292
135 87 75 131 128 114 60 61 53 350 15 20 67 90 123 84 94 159 13 179 6 89 265 110 34 82 80 25 54 58 70 90 104 133 143 139 220 292 301 295 297 297 296 296
127 121 118 116 71 64 78 331 344 55 202 305 106 69 77 90 75 89 2 105 31 165 321 75 279 41 356 10 41 40 43 57 78 87 357 306 302 305 306 305 303 304 304 299
119 88 77 52 2 46 92 138 308 14 198 168 144 33 52 102 75 65 67 68 210 326 45 190 248 94 42 29 52 61 54 64 64 53 32 7 343 325 316 316 313 311 308 304
84 97 63 104 354 247 179 181 179 120 237 142 122 81 94 44 54 175 81 260 53 49 56 241 118 96 54 46 53 67 56 57 54 46 45 41 37 16 349 335 329 327 323 321
81 68 104 131 135 76 97 95 112 63 141 123 96 59 46 358 81 45 86 35 14 194 215 192 148 107 44 34 42 43 40 38 34 25 13 4 359 357 350 340 335 330 327 324
64 58 76 59 63 344 62 70 77 93 134 109 64 82 52 1 115 56 192 106 209 241 187 145 159 151 32 24 28 22 17 8 358 348 341 338 332 330 332 331 328 327 327 326
57 48 67 66 62 67 46 61 61 126 65 110 103 77 200 99 48 37 191 189 206 142 142 149 159 177 155 3 10 360 342 336 333 331 326 324 322 322 325 320 322 325 326 325